Simultaneous Nadir Overpasses (SNOs) Predictions

Prediction of SNOs between NOAA-19 and TERRA Satellite Orbit:

Table of predicted SNOs for the next 14.0 days since TLE Epoch: 4/27/2019
Index Date (NOAA-19) Time (NOAA-19) Lat,Lon (NOAA-19) SZA (NOAA-19 ) Date (TERRA) Time (TERRA) Lat,Lon (TERRA) SZA (TERRA ) Distance(km) Time Diff (sec)
1 04/27/2019 18:39:41 78.28, -78.51 65.21 04/27/2019 18:39:28 78.30, -78.42 65.23 3.08 13
2 04/30/2019 00:13:03 -78.31, 18.01 115.47 04/30/2019 00:13:13 -78.29, 18.10 115.48 3.11 10
3 05/02/2019 05:46:35 78.30, 114.82 63.87 05/02/2019 05:46:56 78.32, 114.82 63.90 2.96 21
4 05/02/2019 06:37:29 -78.26, -77.70 116.16 05/02/2019 06:36:24 -78.29, -77.73 116.17 2.55 65
5 05/04/2019 11:19:57 -78.32,-148.58 116.77 05/04/2019 11:20:41 -78.32,-148.65 116.76 1.54 44
6 05/04/2019 12:11:02 78.30, 18.81 63.21 05/04/2019 12:10:08 78.27, 18.77 63.17 2.87 54
7 05/06/2019 16:53:29 78.33, -51.93 62.62 05/06/2019 16:54:24 78.34, -51.95 62.64 1.68 55
8 05/06/2019 17:44:24 -78.31, 115.46 117.41 05/06/2019 17:43:52 -78.31, 115.51 117.42 1.14 32
9 05/08/2019 22:26:57 -78.55, 43.39 117.90 05/08/2019 22:28:07 -78.42, 45.01 117.86 38.55 70
10 05/08/2019 23:17:55 78.30,-147.76 61.99 05/08/2019 23:17:35 78.33,-147.81 62.01 3.96 20




NCC Satellite Simultaneous Nadir Overpasses (SNOs) Prediction Service
